This is the latest recevied weather packets stored in our database for station/object KK6LVQ-13. If no packets are shown the sender has not sent any weather packets the latest 10 day(s).
| Time | Temp. | Humidity | Pressure | Rain* | Wind** | Luminosity | Snow |
|---|---|---|---|---|---|---|---|
| 1777643760 | 7.78° C | 99% | 1020.1 hPa | 0 mm | - | 26 W/m² | - |
| 1777643458 | 7.78° C | 99% | 1020 hPa | 0 mm | - | 21 W/m² | - |
| 1777643154 | 7.78° C | 99% | 1020.3 hPa | 0 mm | - | 15 W/m² | - |
| 1777642851 | 7.78° C | 99% | 1019.9 hPa | 0 mm | - | 14 W/m² | - |
| 1777642548 | 7.78° C | 99% | 1019.9 hPa | 0 mm | - | 11 W/m² | - |
| 1777642244 | 7.22° C | 99% | 1019.9 hPa | 0 mm | - | 8 W/m² | - |
| 1777641942 | 7.22° C | 99% | 1019.9 hPa | 0 mm | - | 6 W/m² | - |
| 1777641332 | 7.78° C | 99% | 1019.8 hPa | 0 mm | - | 3 W/m² | - |
| 1777641028 | 7.78° C | 99% | 1019.9 hPa | 0 mm | - | 1 W/m² | - |
| 1777638298 | 7.22° C | 99% | 1019.7 hPa | 0 mm | - | 0 W/m² | - |
| 1777637994 | 7.22° C | 99% | 1019.9 hPa | 0 mm | - | 0 W/m² | - |
| 1777637084 | 7.22° C | 99% | 1019.7 hPa | 0 mm | - | 0 W/m² | - |
| 1777636780 | 7.22° C | 99% | 1019.8 hPa | 0 mm | - | 0 W/m² | - |
| 1777636476 | 7.22° C | 99% | 1019.5 hPa | 0 mm | - | 0 W/m² | - |
| 1777636172 | 7.22° C | 99% | 1019.6 hPa | 0 mm | - | 0 W/m² | - |
| 1777635564 | 7.22° C | 99% | 1019.6 hPa | 0 mm | - | 0 W/m² | - |
| 1777635261 | 7.22° C | 99% | 1019.5 hPa | 0 mm | - | 0 W/m² | - |
| 1777634957 | 7.22° C | 99% | 1019.5 hPa | 0 mm | - | 0 W/m² | - |
| 1777634654 | 7.22° C | 99% | 1019.5 hPa | 0 mm | - | 0 W/m² | - |
| 1777634351 | 7.22° C | 99% | 1019.4 hPa | 0 mm | - | 0 W/m² | - |
| 1777634048 | 7.22° C | 99% | 1019.4 hPa | 0 mm | - | 0 W/m² | - |
| 1777633744 | 7.22° C | 99% | 1019.4 hPa | 0 mm | - | 0 W/m² | - |
| 1777633443 | 7.22° C | 99% | 1019.5 hPa | 0 mm | - | 0 W/m² | - |
| 1777633140 | 7.22° C | 99% | 1019.5 hPa | 0 mm | - | 0 W/m² | - |
| 1777632836 | 7.22° C | 99% | 1019.6 hPa | 0 mm | - | 0 W/m² | - |
* Rain latest hour (hover to see other rain measurements)
** Current wind speed in m/s (hover to see current wind gust speed)